Regional Weather Roundup
Issued by NWS

Home | Current Version | Previous Version | Graphics & Text | Print | Product List | Glossary On
Versions: 1 2 3 4 5 6 7 8 9 10 11 12 13 14 15 16 17 18 19 20 21 22 23 24 25 26 27 28 29 30 31 32 33 34 35 36 37 38 39 40 41 42 43 44 45 46 47 48 49 50
000
ASUS43 KLMK 200602
RWRKY
KENTUCKY REGIONAL WEATHER ROUNDUP
NATIONAL WEATHER SERVICE LOUISVILLE KY
200 AM EDT SAT SEP 20 2014

NOTE "FAIR" INDICATES FEW OR NO CLOUDS BELOW 12,000 FEET
WITH NO SIGNIFICANT WEATHER AND/OR OBSTRUCTIONS TO VISIBILITY.

KYZ001>023-026-027-061>063-070>075-200700-
WESTERN AND SOUTH CENTRAL KENTUCKY

CITY           SKY/WX    TMP DP  RH WIND       PRES   REMARKS
PADUCAH        CLEAR     63  60  90 CALM      30.03F
HENDERSON      CLEAR     55  52  88 CALM      30.04F
OWENSBORO      PTCLDY    63  59  87 CALM      30.05S
HOPKINSVILLE   CLEAR     64  64 100 CALM      30.05S
BOWLING GREEN  PTCLDY    63  60  90 CALM      30.06S
GLASGOW        MOCLDY    62  62  99 CALM      30.07S
$$

KYZ024-025-028>034-038-045-046-053-200700-
NORTH CENTRAL KENTUCKY

CITY           SKY/WX    TMP DP  RH WIND       PRES   REMARKS
LOUISVILLE/SDF MOCLDY    64  57  78 SE5       30.07S
LOUISVILLE/LOU PTCLDY    63  56  78 CALM      30.07F
FORT KNOX      PTCLDY    62  58  87 E2        30.06S
$$

KYZ035>037-039>044-047>052-055>060-089>105-200700-
NORTHEAST KENTUCKY

CITY           SKY/WX    TMP DP  RH WIND       PRES   REMARKS
LEXINGTON      PTCLDY    63  59  87 SE5       30.10S
COVINGTON      PTCLDY    61  53  75 CALM      30.08F
FRANKFORT      MOCLDY    57  55  93 MISG      30.08S
$$

KYZ054-064>069-076>088-106>120-200700-
SOUTHEAST KENTUCKY

CITY           SKY/WX    TMP DP  RH WIND       PRES   REMARKS
JACKSON        CLEAR     66  59  78 SE5       30.13F
LONDON         CLEAR     66  58  75 CALM      30.13S
SOMERSET       PTCLDY    63  61  94 CALM      30.12S
MIDDLESBORO    PTCLDY    62  59  91 W5        30.17S
MONTICELLO     CLEAR     69  62  78 S7        30.12S
$$



USA.gov is the U.S. government's official web portal to all federal, state and local government web resources and services.